Location: Newark
(30.8300°N, 83.2700°W)
Time: 00:59:03
(UTC+00:00)

Hubble Space Telescope - Visible Passes

Search period start: 20 September 2019 00:00
Search period end: 30 September 2019 00:00
Orbit: 536 x 540 km, 28.5° (Epoch: 19 September)

Date Brightness Start Highest point End Pass type
(mag) Time Alt. Az. Time Alt. Az. Time Alt. Az.
20 Sep 1.9 09:21:43 37° SE 09:21:43 37° SE 09:24:26 10° ESE visible
21 Sep 2.7 09:11:59 24° ESE 09:11:59 24° ESE 09:13:49 10° ESE visible
21 Sep 2.2 10:47:23 10° WSW 10:50:41 23° SSW 10:53:58 10° SSE visible
22 Sep 3.3 09:02:18 16° ESE 09:02:18 16° ESE 09:03:11 10° ESE visible
22 Sep 2.5 10:37:40 12° WSW 10:40:03 19° SSW 10:42:59 10° SSE visible
23 Sep 2.7 10:28:04 13° SW 10:29:24 15° SSW 10:31:49 10° SSE visible
24 Sep 2.9 10:18:31 12° SSW 10:18:45 12° SSW 10:20:17 10° S visible
28 Sep 3.2 01:09:06 10° SSW 01:09:41 12° SSW 01:09:41 12° SSW visible
29 Sep 2.6 00:58:04 10° SSW 01:00:03 19° S 01:00:03 19° S visible
